Volver al catálogo

METEOR 2-8 DEB

ActivoPO
NORAD 36346·DEBRIS·🇷🇺 Russia

Lanzado Mar 25, 1982 desde Plesetsk Cosmodrome

Loading…

Próximos Pases (próximas 24 horas)

TLE

ObsoletoSource: Space-Track

Época: Aug 30, 2026, 09:03 UTC

1 36346U 82025AG  26242.37754788  .00003523  00000-0  12085-2 0  9995
2 36346  82.5337 114.4369 0005063  83.9582 276.2184 14.35947500332421

Sigue METEOR 2-8 DEB en tiempo real con AllMySat

Download on the App Store